Weather History for Jonesboro, AR

Change the Weather History Date:

Tuesday, January 28, 2014

  Actual Average Record
Temperature  
Mean Temperature 17 °F 38 °F  
Max Temperature 25 °F 47 °F 75 °F (1914)
Min Temperature 8 °F 29 °F 5 °F (1963)
Degree Days  
Heating Degree Days 48 27  
Month to date heating degree days 876 777  
Since 1 July heating degree days 2436 2219  
Cooling Degree Days 0 0  
Month to date cooling degree days 0 0  
Year to date cooling degree days 0 0  
Moisture  
Dew Point -3 °F    
Average Humidity 49    
Maximum Humidity 73    
Minimum Humidity 25    
Precipitation  
Precipitation 0.00 in 0.12 in 2.89 in (1957)
Month to date precipitation 2.11 3.03  
Year to date precipitation 2.11 3.03  
Snow  
Snow 0.00 in - 0.90 in (1900)
Month to date snowfall T  
Since 1 July snowfall 1.0  
Snow Depth 0.00 in    
Sea Level Pressure  
Sea Level Pressure 30.47 in    
Wind  
Wind Speed 7 mph (NNE)    
Max Wind Speed 18 mph    
Max Gust Speed 24 mph    
Visibility 10 miles    
Events      
T = Trace of Precipitation, MM = Missing Value Source: NWS Daily Summary

Daily Weather History Graph

Daily Weather History Graph

Search for Another Location

Airport:

Trip Planner

Search our weather history database for the weather conditions in past years. The results will help you decide how hot, cold, wet, or windy it might be!

Date:

Astronomy

Jan. 28, 2014 Rise Set
Actual Time 7:05 AM CST 5:25 PM CST
Civil Twilight 6:38 AM CST 5:52 PM CST
Nautical Twilight 6:07 AM CST 6:23 PM CST
Astronomical Twilight 5:37 AM CST 6:53 PM CST
Moon 4:46 AM CST (1/28) 3:17 PM CST (1/28)
Length of Visible Light 11h 14m
Length of Day
10h 19m
Waning Crescent, 7% of the Moon is Illuminated
Jan 28
Waning Crescent
Jan 30
New
Feb 6
First Quarter
Feb 14
Full
Feb 22
Last Quarter

Hourly Weather History & Observations

Time (CST) Temp. Windchill Dew Point Humidity Pressure Visibility Wind Dir Wind Speed Gust Speed Precip Events Conditions
12:53 AM 19.0 °F 5.0 °F -0.9 °F 42% 30.46 in 10.0 mi NE 15.0 mph - N/A   Overcast
1:53 AM 18.0 °F 4.8 °F -2.0 °F 41% 30.46 in 10.0 mi NE 12.7 mph - N/A   Overcast
2:53 AM 18.0 °F 4.2 °F -2.0 °F 41% 30.47 in 10.0 mi NE 13.8 mph - N/A   Overcast
3:53 AM 17.1 °F 4.3 °F -0.9 °F 45% 30.47 in 10.0 mi NE 11.5 mph - N/A   Overcast
4:53 AM 16.0 °F 1.1 °F -2.0 °F 45% 30.47 in 10.0 mi NE 15.0 mph 19.6 mph N/A   Overcast
5:53 AM 16.0 °F 4.4 °F -2.0 °F 45% 30.49 in 10.0 mi NNE 9.2 mph 16.1 mph N/A   Overcast
6:53 AM 15.1 °F 2.5 °F -2.0 °F 47% 30.49 in 10.0 mi NE 10.4 mph - N/A   Overcast
7:53 AM 15.1 °F 1.1 °F -4.0 °F 43% 30.51 in 10.0 mi NNE 12.7 mph - N/A   Overcast
8:53 AM 16.0 °F 5.3 °F -4.0 °F 41% 30.53 in 10.0 mi North 8.1 mph - N/A   Overcast
9:53 AM 18.0 °F 7.7 °F -2.9 °F 40% 30.53 in 10.0 mi NNE 8.1 mph - N/A   Mostly Cloudy
10:53 AM 18.0 °F 7.7 °F -5.1 °F 36% 30.53 in 10.0 mi North 8.1 mph - N/A   Partly Cloudy
11:53 AM 19.9 °F 10.1 °F -5.1 °F 33% 30.51 in 10.0 mi NNW 8.1 mph - N/A   Scattered Clouds
12:53 PM 21.9 °F 11.0 °F -6.0 °F 29% 30.48 in 10.0 mi North 10.4 mph 16.1 mph N/A   Clear
1:53 PM 23.0 °F 13.9 °F -7.1 °F 27% 30.44 in 10.0 mi NNW 8.1 mph - N/A   Clear
2:53 PM 24.1 °F 16.0 °F -8.0 °F 24% 30.42 in 10.0 mi North 6.9 mph - N/A   Clear
3:53 PM 25.0 °F 17.1 °F -7.1 °F 24% 30.42 in 10.0 mi NE 6.9 mph - N/A   Clear
4:53 PM 23.0 °F 17.0 °F -7.1 °F 27% 30.41 in 10.0 mi NNE 4.6 mph - N/A   Clear
5:53 PM 18.0 °F - -6.0 °F 35% 30.42 in 10.0 mi Calm Calm - N/A   Clear
6:53 PM 15.1 °F - -2.0 °F 47% 30.43 in 10.0 mi Calm Calm - N/A   Clear
7:53 PM 10.9 °F - -0.0 °F 61% 30.44 in 10.0 mi Calm Calm - N/A   Clear
8:53 PM 12.9 °F - 1.9 °F 62% 30.45 in 10.0 mi Calm Calm - N/A   Clear
9:53 PM 10.0 °F - 1.9 °F 70% 30.45 in 10.0 mi Calm Calm - N/A   Clear
10:53 PM 9.0 °F - 1.9 °F 73% 30.45 in 10.0 mi Calm Calm - N/A   Clear
11:53 PM 10.9 °F 1.4 °F 1.9 °F 67% 30.47 in 10.0 mi SW 5.8 mph - N/A   Clear